Weather in Krasnaya Polyana

Russia / Krasnodar Krai     43°40′47″N   40°12′19″E
temp.,
°C
wind,
m/s
gust,
m/s
humid.,
%
clouds,
%
prec.,
mm/h
press.,
hPa
HPBL,
m
5 march, fri
fri500:00−11e22500 0.0 102222
03:00−10e22360 0.0 102122
06:00−10e22430 0.0 102022
09:00−3se12660 0.0 1019133
12:00−2ssw22930 0.0 1019178
15:00−1s12951 0.0 1018182
18:00−4se22863 0.0 102022
21:00−6ese23622 0.0 102022
6 march, sat
sat600:00−6ese33470 0.0 102022
03:00−5e234736 0.0 101923
06:00−5ese334699 0.0 101823
09:00−1s347984 0.0 1018101
12:00+1sw469518 0.0 1017484
15:000sw469516 0.0 1015523
18:00−4sw339694 0.1 101646
21:00−4s359997 3.1 1018192
7 march, sun
sun700:00−2ssw4599100 5.8 1021230
03:00−3wsw3499100 16.6 1022277
06:00−6nnw1197100 4.6 102450
09:00−5ssw229799 4.6 1025198
12:00−4sw339762 0.1 1025517
15:00−5sw349154 0.1 1025630
18:00−9sw2310062 0.1 102596
21:00−10s239981 0.4 102692
8 march, mon
mon800:00−14ese229096 0.1 102527
03:00−16e226260 0.1 102422
06:00−15e33460 0.0 102322
09:00−8sse22590 0.0 1021155
12:00−6sw33790 0.0 1020576
15:00−5sw33836 0.0 1019589
18:00−10sw119662 0.0 101929
21:00−12e228676 0.1 102022
9 march, tue
tue900:00−12e227896 0.0 101922
03:00−12ese228056 0.0 101822
06:00−12e238326 0.0 101822
09:00−7ssw338713 0.0 1017240
12:00−5sw449855 0.1 1017541
15:00−5sw459670 0.3 1017634
18:00−6sw34100100 0.3 1017385
21:00−8sse2399100 0.3 1018132